owner,sensor,date,latitude,longitude,vertical_datum,wind_speed,wind_to_direction,wind_speed_of_gust,qcFlag 
COMPS,ioos:station:USF.COMPS:C10:1,2014-07-01T00:05:00Z,27.1690,-82.9260,3.0,11.379,48.252,15.73,'1111122,1111122,1111122' 
COMPS,ioos:station:USF.COMPS:C10:1,2014-07-01T00:35:00Z,27.1690,-82.9260,3.0,7.915,71.894,9.803,'1111122,1111122,1111122' 
COMPS,ioos:station:USF.COMPS:C10:1,2014-07-01T01:05:00Z,27.1690,-82.9260,3.0,4.906,60.909,6.537,'1111122,1111122,1111122' 
COMPS,ioos:station:USF.COMPS:C10:1,2014-07-01T01:35:00Z,27.1690,-82.9260,3.0,3.482,35.599,4.26,'1111122,1111122,1111122' 
COMPS,ioos:station:USF.COMPS:C10:1,2014-07-01T02:05:00Z,27.1690,-82.9260,3.0,3.051,19.064,3.733,'1111122,1111122,1111122' 
COMPS,ioos:station:USF.COMPS:C10:1,2014-07-01T02:35:00Z,27.1690,-82.9260,3.0,3.295,353.212,4.02,'1111122,1111122,1111122' 
COMPS,ioos:station:USF.COMPS:C10:1,2014-07-01T03:05:00Z,27.1690,-82.9260,3.0,4.155,333.195,5.563,'1111122,1111122,1111122' 
COMPS,ioos:station:USF.COMPS:C10:1,2014-07-01T03:35:00Z,27.1690,-82.9260,3.0,3.47,327.568,4.78,'1111122,1111122,1111122' 
COMPS,ioos:station:USF.COMPS:C10:1,2014-07-01T04:05:00Z,27.1690,-82.9260,3.0,3.405,308.389,4.3,'1111122,1111122,1111122' 
COMPS,ioos:station:USF.COMPS:C10:1,2014-07-01T04:35:00Z,27.1690,-82.9260,3.0,2.948,342.817,3.583,'1111122,1111122,1111122' 
COMPS,ioos:station:USF.COMPS:C10:1,2014-07-01T05:05:00Z,27.1690,-82.9260,3.0,2.692,342.961,3.41,'1111122,1111122,1111122' 
COMPS,ioos:station:USF.COMPS:C10:1,2014-07-01T05:35:00Z,27.1690,-82.9260,3.0,2.825,334.057,3.557,'1111122,1111122,1111122' 
COMPS,ioos:station:USF.COMPS:C10:1,2014-07-01T06:05:00Z,27.1690,-82.9260,3.0,3.915,324.844,5.29,'1111122,1111122,1111122' 
COMPS,ioos:station:USF.COMPS:C10:1,2014-07-01T06:35:00Z,27.1690,-82.9260,3.0,3.799,299.683,4.51,'1111122,1111122,1111122' 
COMPS,ioos:station:USF.COMPS:C10:1,2014-07-01T07:05:00Z,27.1690,-82.9260,3.0,4.485,320.272,6.053,'1111122,1111122,1111122' 
COMPS,ioos:station:USF.COMPS:C10:1,2014-07-01T07:35:00Z,27.1690,-82.9260,3.0,4.31,332.284,5.207,'1111122,1111122,1111122' 
COMPS,ioos:station:USF.COMPS:C10:1,2014-07-01T09:05:00Z,27.1690,-82.9260,3.0,4.852,346.366,5.853,'1111122,1111122,1111122' 
COMPS,ioos:station:USF.COMPS:C10:1,2014-07-01T09:35:00Z,27.1690,-82.9260,3.0,4.778,349.002,5.983,'1111122,1111122,1111122' 
COMPS,ioos:station:USF.COMPS:C10:1,2014-07-01T10:05:00Z,27.1690,-82.9260,3.0,5.212,354.173,6.2,'1111122,1111122,1111122' 
COMPS,ioos:station:USF.COMPS:C10:1,2014-07-01T10:35:00Z,27.1690,-82.9260,3.0,4.831,358.62,5.81,'1111122,1111122,1111122' 
COMPS,ioos:station:USF.COMPS:C10:1,2014-07-01T11:05:00Z,27.1690,-82.9260,3.0,5.024,359.313,6.037,'1111122,1111122,1111122' 
COMPS,ioos:station:USF.COMPS:C10:1,2014-07-01T11:35:00Z,27.1690,-82.9260,3.0,5.03,11.686,6.303,'1111122,1111122,1111122' 
COMPS,ioos:station:USF.COMPS:C10:1,2014-07-01T12:05:00Z,27.1690,-82.9260,3.0,4.216,24.126,5.72,'1111122,1111122,1111122' 
COMPS,ioos:station:USF.COMPS:C10:1,2014-07-01T12:35:00Z,27.1690,-82.9260,3.0,3.379,44.662,4.52,'1111122,1111122,1111122' 
COMPS,ioos:station:USF.COMPS:C10:1,2014-07-01T13:05:00Z,27.1690,-82.9260,3.0,2.734,55.024,4.02,'1111122,1111122,1111122' 
COMPS,ioos:station:USF.COMPS:C10:1,2014-07-01T13:35:00Z,27.1690,-82.9260,3.0,1.736,29.129,2.79,'1111122,1111122,1111122' 
COMPS,ioos:station:USF.COMPS:C10:1,2014-07-01T14:05:00Z,27.1690,-82.9260,3.0,2.87,341.123,3.72,'1111122,1111122,1111122' 
COMPS,ioos:station:USF.COMPS:C10:1,2014-07-01T14:35:00Z,27.1690,-82.9260,3.0,3.124,339.971,4.167,'1111122,1111122,1111122' 
COMPS,ioos:station:USF.COMPS:C10:1,2014-07-01T15:05:00Z,27.1690,-82.9260,3.0,3.143,317.465,4.723,'1111122,1111122,1111122' 
COMPS,ioos:station:USF.COMPS:C10:1,2014-07-01T15:35:00Z,27.1690,-82.9260,3.0,2.87,316.287,4.123,'1111122,1111122,1111122' 
COMPS,ioos:station:USF.COMPS:C10:1,2014-07-01T18:05:00Z,27.1690,-82.9260,3.0,4.72,338.935,5.867,'1111122,1111122,1111122' 
COMPS,ioos:station:USF.COMPS:C10:1,2014-07-01T18:35:00Z,27.1690,-82.9260,3.0,5.538,327.287,6.803,'1111122,1111122,1111122' 
COMPS,ioos:station:USF.COMPS:C10:1,2014-07-01T19:05:00Z,27.1690,-82.9260,3.0,5.789,312.246,6.877,'1111122,1111122,1111122' 
COMPS,ioos:station:USF.COMPS:C10:1,2014-07-01T19:35:00Z,27.1690,-82.9260,3.0,6.131,313.694,7.847,'1111122,1111122,1111122' 
COMPS,ioos:station:USF.COMPS:C10:1,2014-07-01T21:05:00Z,27.1690,-82.9260,3.0,6.061,320.009,7.1,'1111122,1111122,1111122' 
COMPS,ioos:station:USF.COMPS:C10:1,2014-07-01T21:35:00Z,27.1690,-82.9260,3.0,6.118,319.928,7.477,'1111122,1111122,1111122' 
COMPS,ioos:station:USF.COMPS:C10:1,2014-07-01T22:05:00Z,27.1690,-82.9260,3.0,6.38,318.826,7.74,'1111122,1111122,1111122' 
COMPS,ioos:station:USF.COMPS:C10:1,2014-07-01T22:35:00Z,27.1690,-82.9260,3.0,5.835,323.653,7.393,'1111122,1111122,1111122' 
COMPS,ioos:station:USF.COMPS:C10:1,2014-07-01T23:05:00Z,27.1690,-82.9260,3.0,5.213,334.455,6.097,'1111122,1111122,1111122' 
COMPS,ioos:station:USF.COMPS:C10:1,2014-07-01T23:35:00Z,27.1690,-82.9260,3.0,5.237,336.261,6.467,'1111122,1111122,1111122' 
COMPS,ioos:station:USF.COMPS:C10:1,2014-07-02T00:05:00Z,27.1690,-82.9260,3.0,4.826,332.294,6.073,'1111122,1111122,1111122' 
COMPS,ioos:station:USF.COMPS:C10:1,2014-07-02T00:35:00Z,27.1690,-82.9260,3.0,4.961,336.243,6.067,'1111122,1111122,1111122' 
COMPS,ioos:station:USF.COMPS:C10:1,2014-07-02T01:05:00Z,27.1690,-82.9260,3.0,4.66,342.151,5.427,'1111122,1111122,1111122' 
COMPS,ioos:station:USF.COMPS:C10:1,2014-07-02T01:35:00Z,27.1690,-82.9260,3.0,3.398,37.784,4.947,'1111122,1111122,1111122' 
COMPS,ioos:station:USF.COMPS:C10:1,2014-07-02T02:05:00Z,27.1690,-82.9260,3.0,2.514,30.052,3.56,'1111122,1111122,1111122' 
COMPS,ioos:station:USF.COMPS:C10:1,2014-07-02T02:35:00Z,27.1690,-82.9260,3.0,3.204,350.701,4.113,'1111122,1111122,1111122' 
COMPS,ioos:station:USF.COMPS:C10:1,2014-07-02T03:05:00Z,27.1690,-82.9260,3.0,5.006,318.667,6.14,'1111122,1111122,1111122' 
COMPS,ioos:station:USF.COMPS:C10:1,2014-07-02T03:35:00Z,27.1690,-82.9260,3.0,5.406,334.775,6.53,'1111122,1111122,1111122' 
COMPS,ioos:station:USF.COMPS:C10:1,2014-07-02T04:05:00Z,27.1690,-82.9260,3.0,4.676,337.707,5.79,'1111122,1111122,1111122' 
COMPS,ioos:station:USF.COMPS:C10:1,2014-07-02T04:35:00Z,27.1690,-82.9260,3.0,4.557,345.328,5.487,'1111122,1111122,1111122' 
COMPS,ioos:station:USF.COMPS:C10:1,2014-07-02T05:05:00Z,27.1690,-82.9260,3.0,3.941,337.254,5.087,'1111122,1111122,1111122' 
COMPS,ioos:station:USF.COMPS:C10:1,2014-07-02T05:35:00Z,27.1690,-82.9260,3.0,4.707,110.067,6.927,'1111122,1111122,1111122' 
COMPS,ioos:station:USF.COMPS:C10:1,2014-07-02T06:05:00Z,27.1690,-82.9260,3.0,2.686,148.79,4.76,'1111122,1111122,1111122' 
COMPS,ioos:station:USF.COMPS:C10:1,2014-07-02T06:35:00Z,27.1690,-82.9260,3.0,1.352,358.034,2.26,'1111122,1111122,1111122' 
COMPS,ioos:station:USF.COMPS:C10:1,2014-07-02T07:05:00Z,27.1690,-82.9260,3.0,1.394,40.735,1.94,'1111122,1111122,1111122' 
COMPS,ioos:station:USF.COMPS:C10:1,2014-07-02T07:35:00Z,27.1690,-82.9260,3.0,1.681,76.907,2.497,'1111122,1111122,1111122' 
COMPS,ioos:station:USF.COMPS:C10:1,2014-07-02T08:05:00Z,27.1690,-82.9260,3.0,2.069,15.14,2.663,'1111122,1111122,1111122' 
COMPS,ioos:station:USF.COMPS:C10:1,2014-07-02T08:35:00Z,27.1690,-82.9260,3.0,0.726,337.781,1.657,'1111122,1111122,1111122' 
COMPS,ioos:station:USF.COMPS:C10:1,2014-07-02T09:05:00Z,27.1690,-82.9260,3.0,1.627,292.225,2.14,'1111122,1111122,1111122' 
COMPS,ioos:station:USF.COMPS:C10:1,2014-07-02T09:35:00Z,27.1690,-82.9260,3.0,1.937,339.814,2.713,'1111122,1111122,1111122' 
COMPS,ioos:station:USF.COMPS:C10:1,2014-07-02T10:05:00Z,27.1690,-82.9260,3.0,1.244,303.14,1.887,'1111122,1111122,1111122' 
COMPS,ioos:station:USF.COMPS:C10:1,2014-07-02T10:35:00Z,27.1690,-82.9260,3.0,1.014,344.47,1.523,'1111122,1111122,1111122' 
COMPS,ioos:station:USF.COMPS:C10:1,2014-07-02T11:05:00Z,27.1690,-82.9260,3.0,0.891,289.317,1.543,'1111122,1111122,1111122' 
COMPS,ioos:station:USF.COMPS:C10:1,2014-07-02T11:35:00Z,27.1690,-82.9260,3.0,0.442,253.192,0.847,'1111122,1111122,1111122' 
COMPS,ioos:station:USF.COMPS:C10:1,2014-07-02T12:05:00Z,27.1690,-82.9260,3.0,0.723,226.482,1.353,'1111122,1111122,1111122' 
COMPS,ioos:station:USF.COMPS:C10:1,2014-07-02T12:35:00Z,27.1690,-82.9260,3.0,1.155,214.832,1.853,'1111122,1111122,1111122' 
COMPS,ioos:station:USF.COMPS:C10:1,2014-07-02T13:05:00Z,27.1690,-82.9260,3.0,0.534,223.236,1.103,'1111122,1111122,1111122' 
COMPS,ioos:station:USF.COMPS:C10:1,2014-07-02T13:35:00Z,27.1690,-82.9260,3.0,1.21,336.293,1.857,'1111122,1111122,1111122' 
COMPS,ioos:station:USF.COMPS:C10:1,2014-07-02T14:05:00Z,27.1690,-82.9260,3.0,1.568,333.022,2.463,'1111122,1111122,1111122' 
COMPS,ioos:station:USF.COMPS:C10:1,2014-07-02T14:35:00Z,27.1690,-82.9260,3.0,1.574,344.445,2.237,'1111122,1111122,1111122' 
COMPS,ioos:station:USF.COMPS:C10:1,2014-07-02T15:05:00Z,27.1690,-82.9260,3.0,1.854,266.274,2.557,'1111122,1111122,1111122' 
COMPS,ioos:station:USF.COMPS:C10:1,2014-07-02T15:35:00Z,27.1690,-82.9260,3.0,3.373,294.047,4.34,'1111122,1111122,1111122' 
COMPS,ioos:station:USF.COMPS:C10:1,2014-07-02T16:05:00Z,27.1690,-82.9260,3.0,4.909,277.667,6.14,'1111122,1111122,1111122' 
COMPS,ioos:station:USF.COMPS:C10:1,2014-07-02T16:35:00Z,27.1690,-82.9260,3.0,9.465,329.53,12.33,'1111122,1111122,1111122' 
COMPS,ioos:station:USF.COMPS:C10:1,2014-07-02T17:05:00Z,27.1690,-82.9260,3.0,9.674,329.086,12.06,'1111122,1111122,1111122' 
COMPS,ioos:station:USF.COMPS:C10:1,2014-07-02T17:35:00Z,27.1690,-82.9260,3.0,7.509,327.301,9.52,'1111122,1111122,1111122' 
COMPS,ioos:station:USF.COMPS:C10:1,2014-07-02T19:05:00Z,27.1690,-82.9260,3.0,1.609,256.645,2.34,'1111122,1111122,1111122' 
COMPS,ioos:station:USF.COMPS:C10:1,2014-07-02T19:35:00Z,27.1690,-82.9260,3.0,3.051,274.5,4.147,'1111122,1111122,1111122' 
COMPS,ioos:station:USF.COMPS:C10:1,2014-07-02T20:05:00Z,27.1690,-82.9260,3.0,2.903,290.428,3.933,'1111122,1111122,1111122' 
COMPS,ioos:station:USF.COMPS:C10:1,2014-07-02T20:35:00Z,27.1690,-82.9260,3.0,3.157,277.673,4.14,'1111122,1111122,1111122' 
COMPS,ioos:station:USF.COMPS:C10:1,2014-07-02T21:05:00Z,27.1690,-82.9260,3.0,4.242,253.295,5.497,'1111122,1111122,1111122' 
COMPS,ioos:station:USF.COMPS:C10:1,2014-07-02T21:35:00Z,27.1690,-82.9260,3.0,5.516,237.994,6.42,'1111122,1111122,1111122' 
COMPS,ioos:station:USF.COMPS:C10:1,2014-07-02T22:05:00Z,27.1690,-82.9260,3.0,5.502,239.144,6.713,'1111122,1111122,1111122' 
COMPS,ioos:station:USF.COMPS:C10:1,2014-07-02T22:35:00Z,27.1690,-82.9260,3.0,5.672,236.196,6.863,'1111122,1111122,1111122' 
COMPS,ioos:station:USF.COMPS:C10:1,2014-07-02T23:05:00Z,27.1690,-82.9260,3.0,6.567,226.143,8.263,'1111122,1111122,1111122' 
COMPS,ioos:station:USF.COMPS:C10:1,2014-07-02T23:35:00Z,27.1690,-82.9260,3.0,6.306,244.69,7.75,'1111122,1111122,1111122' 
COMPS,ioos:station:USF.COMPS:C10:1,2014-07-03T00:05:00Z,27.1690,-82.9260,3.0,6.703,243.69,8.307,'1111122,1111122,1111122' 
COMPS,ioos:station:USF.COMPS:C10:1,2014-07-03T00:35:00Z,27.1690,-82.9260,3.0,6.164,269.849,7.643,'1111122,1111122,1111122' 
COMPS,ioos:station:USF.COMPS:C10:1,2014-07-03T01:05:00Z,27.1690,-82.9260,3.0,5.133,274.477,7.007,'1111122,1111122,1111122' 
COMPS,ioos:station:USF.COMPS:C10:1,2014-07-03T01:35:00Z,27.1690,-82.9260,3.0,5.355,276.474,7.053,'1111122,1111122,1111122' 
COMPS,ioos:station:USF.COMPS:C10:1,2014-07-03T02:05:00Z,27.1690,-82.9260,3.0,5.275,281.257,6.477,'1111122,1111122,1111122' 
COMPS,ioos:station:USF.COMPS:C10:1,2014-07-03T02:35:00Z,27.1690,-82.9260,3.0,5.591,272.016,6.963,'1111122,1111122,1111122' 
COMPS,ioos:station:USF.COMPS:C10:1,2014-07-03T03:05:00Z,27.1690,-82.9260,3.0,6.083,258.358,7.427,'1111122,1111122,1111122' 
COMPS,ioos:station:USF.COMPS:C10:1,2014-07-03T03:35:00Z,27.1690,-82.9260,3.0,5.345,262.698,6.473,'1111122,1111122,1111122' 
COMPS,ioos:station:USF.COMPS:C10:1,2014-07-03T04:05:00Z,27.1690,-82.9260,3.0,5.517,266.08,6.93,'1111122,1111122,1111122' 
COMPS,ioos:station:USF.COMPS:C10:1,2014-07-03T04:35:00Z,27.1690,-82.9260,3.0,5.417,278.019,6.733,'1111122,1111122,1111122' 
COMPS,ioos:station:USF.COMPS:C10:1,2014-07-03T05:05:00Z,27.1690,-82.9260,3.0,4.933,266.587,6.24,'1111122,1111122,1111122' 
COMPS,ioos:station:USF.COMPS:C10:1,2014-07-03T05:35:00Z,27.1690,-82.9260,3.0,5.363,262.754,6.88,'1111122,1111122,1111122' 
COMPS,ioos:station:USF.COMPS:C10:1,2014-07-03T06:05:00Z,27.1690,-82.9260,3.0,5.381,261.316,6.763,'1111122,1111122,1111122' 
COMPS,ioos:station:USF.COMPS:C10:1,2014-07-03T06:35:00Z,27.1690,-82.9260,3.0,5.313,280.414,6.5,'1111122,1111122,1111122' 
COMPS,ioos:station:USF.COMPS:C10:1,2014-07-03T07:05:00Z,27.1690,-82.9260,3.0,5.02,300.146,5.99,'1111122,1111122,1111122' 
COMPS,ioos:station:USF.COMPS:C10:1,2014-07-03T07:35:00Z,27.1690,-82.9260,3.0,4.446,301.358,6.373,'1111122,1111122,1111122' 
COMPS,ioos:station:USF.COMPS:C10:1,2014-07-03T08:05:00Z,27.1690,-82.9260,3.0,5.732,182.01,7.813,'1111122,1111122,1111122' 
COMPS,ioos:station:USF.COMPS:C10:1,2014-07-03T08:35:00Z,27.1690,-82.9260,3.0,2.635,201.488,3.9,'1111122,1111122,1111122' 
COMPS,ioos:station:USF.COMPS:C10:1,2014-07-03T09:05:00Z,27.1690,-82.9260,3.0,2.194,237.654,3.27,'1111122,1111122,1111122' 
COMPS,ioos:station:USF.COMPS:C10:1,2014-07-03T09:35:00Z,27.1690,-82.9260,3.0,4.831,243.4,5.997,'1111122,1111122,1111122' 
COMPS,ioos:station:USF.COMPS:C10:1,2014-07-03T10:05:00Z,27.1690,-82.9260,3.0,4.345,235.975,5.283,'1111122,1111122,1111122' 
COMPS,ioos:station:USF.COMPS:C10:1,2014-07-03T10:35:00Z,27.1690,-82.9260,3.0,5.651,240.891,8.077,'1111122,1111122,1111122' 
COMPS,ioos:station:USF.COMPS:C10:1,2014-07-03T11:05:00Z,27.1690,-82.9260,3.0,5.526,229.069,6.903,'1111122,1111122,1111122' 
COMPS,ioos:station:USF.COMPS:C10:1,2014-07-03T11:35:00Z,27.1690,-82.9260,3.0,4.123,219.662,5.113,'1111122,1111122,1111122' 
COMPS,ioos:station:USF.COMPS:C10:1,2014-07-03T12:05:00Z,27.1690,-82.9260,3.0,5.2,210.648,6.327,'1111122,1111122,1111122' 
COMPS,ioos:station:USF.COMPS:C10:1,2014-07-03T12:35:00Z,27.1690,-82.9260,3.0,5.786,243.383,6.9,'1111122,1111122,1111122' 
COMPS,ioos:station:USF.COMPS:C10:1,2014-07-03T13:05:00Z,27.1690,-82.9260,3.0,4.842,231.662,6.113,'1111122,1111122,1111122' 
COMPS,ioos:station:USF.COMPS:C10:1,2014-07-03T13:35:00Z,27.1690,-82.9260,3.0,5.241,233.954,6.4,'1111122,1111122,1111122' 
COMPS,ioos:station:USF.COMPS:C10:1,2014-07-03T14:05:00Z,27.1690,-82.9260,3.0,5.123,218.969,6.477,'1111122,1111122,1111122' 
COMPS,ioos:station:USF.COMPS:C10:1,2014-07-03T14:35:00Z,27.1690,-82.9260,3.0,5.519,221.844,6.69,'1111122,1111122,1111122' 
COMPS,ioos:station:USF.COMPS:C10:1,2014-07-03T15:05:00Z,27.1690,-82.9260,3.0,5.912,220.099,7.223,'1111122,1111122,1111122' 
COMPS,ioos:station:USF.COMPS:C10:1,2014-07-03T15:35:00Z,27.1690,-82.9260,3.0,5.965,226.067,7.367,'1111122,1111122,1111122' 
COMPS,ioos:station:USF.COMPS:C10:1,2014-07-03T16:05:00Z,27.1690,-82.9260,3.0,6.842,228.586,8.09,'1111122,1111122,1111122' 
COMPS,ioos:station:USF.COMPS:C10:1,2014-07-03T16:35:00Z,27.1690,-82.9260,3.0,6.132,218.739,7.543,'1111122,1111122,1111122' 
COMPS,ioos:station:USF.COMPS:C10:1,2014-07-03T17:05:00Z,27.1690,-82.9260,3.0,6.204,219.303,7.73,'1111122,1111122,1111122' 
COMPS,ioos:station:USF.COMPS:C10:1,2014-07-03T17:35:00Z,27.1690,-82.9260,3.0,6.429,212.727,7.673,'1111122,1111122,1111122' 
COMPS,ioos:station:USF.COMPS:C10:1,2014-07-03T18:05:00Z,27.1690,-82.9260,3.0,7.201,216.442,8.98,'1111122,1111122,1111122' 
COMPS,ioos:station:USF.COMPS:C10:1,2014-07-03T18:35:00Z,27.1690,-82.9260,3.0,6.653,215.408,8.09,'1111122,1111122,1111122' 
COMPS,ioos:station:USF.COMPS:C10:1,2014-07-03T19:05:00Z,27.1690,-82.9260,3.0,6.907,210.933,8.49,'1111122,1111122,1111122' 
COMPS,ioos:station:USF.COMPS:C10:1,2014-07-03T19:35:00Z,27.1690,-82.9260,3.0,6.591,214.748,8.547,'1111122,1111122,1111122' 
COMPS,ioos:station:USF.COMPS:C10:1,2014-07-03T20:05:00Z,27.1690,-82.9260,3.0,6.975,217.209,8.587,'1111122,1111122,1111122' 
COMPS,ioos:station:USF.COMPS:C10:1,2014-07-03T20:35:00Z,27.1690,-82.9260,3.0,6.842,221.627,8.457,'1111122,1111122,1111122' 
COMPS,ioos:station:USF.COMPS:C10:1,2014-07-03T21:05:00Z,27.1690,-82.9260,3.0,7.514,224.177,9.643,'1111122,1111122,1111122' 
COMPS,ioos:station:USF.COMPS:C10:1,2014-07-03T21:35:00Z,27.1690,-82.9260,3.0,7.306,226.447,8.653,'1111122,1111122,1111122' 
COMPS,ioos:station:USF.COMPS:C10:1,2014-07-03T22:05:00Z,27.1690,-82.9260,3.0,6.14,252.718,8.39,'1111122,1111122,1111122' 
COMPS,ioos:station:USF.COMPS:C10:1,2014-07-03T22:35:00Z,27.1690,-82.9260,3.0,7.436,257.532,11.813,'1111122,1111122,1111122' 
COMPS,ioos:station:USF.COMPS:C10:1,2014-07-03T23:05:00Z,27.1690,-82.9260,3.0,6.714,244.621,8.753,'1111122,1111122,1111122' 
COMPS,ioos:station:USF.COMPS:C10:1,2014-07-03T23:35:00Z,27.1690,-82.9260,3.0,7.225,244.327,9.233,'1111122,1111122,1111122' 
COMPS,ioos:station:USF.COMPS:C10:1,2014-07-04T00:05:00Z,27.1690,-82.9260,3.0,6.648,246.023,8.237,'1111122,1111122,1111122' 
COMPS,ioos:station:USF.COMPS:C10:1,2014-07-04T00:35:00Z,27.1690,-82.9260,3.0,6.556,237.775,7.733,'1111122,1111122,1111122' 
COMPS,ioos:station:USF.COMPS:C10:1,2014-07-04T02:05:00Z,27.1690,-82.9260,3.0,4.299,259.539,6.627,'1111122,1111122,1111122' 
COMPS,ioos:station:USF.COMPS:C10:1,2014-07-04T02:35:00Z,27.1690,-82.9260,3.0,3.481,255.405,4.567,'1111122,1111122,1111122' 
COMPS,ioos:station:USF.COMPS:C10:1,2014-07-04T03:05:00Z,27.1690,-82.9260,3.0,2.452,295.838,3.57,'1111122,1111122,1111122' 
COMPS,ioos:station:USF.COMPS:C10:1,2014-07-04T03:35:00Z,27.1690,-82.9260,3.0,2.259,278.102,3.173,'1111122,1111122,1111122' 
COMPS,ioos:station:USF.COMPS:C10:1,2014-07-04T04:05:00Z,27.1690,-82.9260,3.0,2.236,252.147,3.013,'1111122,1111122,1111122' 
COMPS,ioos:station:USF.COMPS:C10:1,2014-07-04T04:35:00Z,27.1690,-82.9260,3.0,2.548,260.22,3.527,'1111122,1111122,1111122' 
COMPS,ioos:station:USF.COMPS:C10:1,2014-07-04T05:05:00Z,27.1690,-82.9260,3.0,2.631,239.209,3.503,'1111122,1111122,1111122' 
COMPS,ioos:station:USF.COMPS:C10:1,2014-07-04T05:35:00Z,27.1690,-82.9260,3.0,3.683,234.909,4.447,'1111122,1111122,1111122' 
COMPS,ioos:station:USF.COMPS:C10:1,2014-07-04T06:05:00Z,27.1690,-82.9260,3.0,3.566,255.584,5.417,'1111122,1111122,1111122' 
COMPS,ioos:station:USF.COMPS:C10:1,2014-07-04T06:35:00Z,27.1690,-82.9260,3.0,2.776,219.549,3.647,'1111122,1111122,1111122' 
COMPS,ioos:station:USF.COMPS:C10:1,2014-07-04T07:05:00Z,27.1690,-82.9260,3.0,2.311,242.436,3.55,'1111122,1111122,1111122' 
COMPS,ioos:station:USF.COMPS:C10:1,2014-07-04T07:35:00Z,27.1690,-82.9260,3.0,2.931,237.975,4.357,'1111122,1111122,1111122' 
COMPS,ioos:station:USF.COMPS:C10:1,2014-07-04T08:05:00Z,27.1690,-82.9260,3.0,3.55,234.077,4.993,'1111122,1111122,1111122' 
COMPS,ioos:station:USF.COMPS:C10:1,2014-07-04T08:35:00Z,27.1690,-82.9260,3.0,5.756,217.396,7.06,'1111122,1111122,1111122' 
COMPS,ioos:station:USF.COMPS:C10:1,2014-07-04T09:05:00Z,27.1690,-82.9260,3.0,5.545,216.778,6.703,'1111122,1111122,1111122' 
COMPS,ioos:station:USF.COMPS:C10:1,2014-07-04T09:35:00Z,27.1690,-82.9260,3.0,5.621,220.96,7.04,'1111122,1111122,1111122' 
COMPS,ioos:station:USF.COMPS:C10:1,2014-07-04T10:05:00Z,27.1690,-82.9260,3.0,6.123,216.788,7.403,'1111122,1111122,1111122' 
COMPS,ioos:station:USF.COMPS:C10:1,2014-07-04T10:35:00Z,27.1690,-82.9260,3.0,6.652,217.081,8.27,'1111122,1111122,1111122' 
COMPS,ioos:station:USF.COMPS:C10:1,2014-07-04T11:05:00Z,27.1690,-82.9260,3.0,5.874,228.001,7.63,'1111122,1111122,1111122' 
COMPS,ioos:station:USF.COMPS:C10:1,2014-07-04T11:35:00Z,27.1690,-82.9260,3.0,5.322,223.367,6.733,'1111122,1111122,1111122' 
COMPS,ioos:station:USF.COMPS:C10:1,2014-07-04T12:05:00Z,27.1690,-82.9260,3.0,4.696,228.139,5.857,'1111122,1111122,1111122' 
COMPS,ioos:station:USF.COMPS:C10:1,2014-07-04T12:35:00Z,27.1690,-82.9260,3.0,4.941,234.276,6.323,'1111122,1111122,1111122' 
COMPS,ioos:station:USF.COMPS:C10:1,2014-07-04T13:05:00Z,27.1690,-82.9260,3.0,5.037,234.659,6.343,'1111122,1111122,1111122' 
COMPS,ioos:station:USF.COMPS:C10:1,2014-07-04T13:35:00Z,27.1690,-82.9260,3.0,4.724,236.33,6.05,'1111122,1111122,1111122' 
COMPS,ioos:station:USF.COMPS:C10:1,2014-07-04T14:05:00Z,27.1690,-82.9260,3.0,4.355,236.652,5.277,'1111122,1111122,1111122' 
COMPS,ioos:station:USF.COMPS:C10:1,2014-07-04T14:35:00Z,27.1690,-82.9260,3.0,3.971,233.814,5.15,'1111122,1111122,1111122' 
COMPS,ioos:station:USF.COMPS:C10:1,2014-07-04T15:05:00Z,27.1690,-82.9260,3.0,4.31,239.616,5.57,'1111122,1111122,1111122' 
COMPS,ioos:station:USF.COMPS:C10:1,2014-07-04T15:35:00Z,27.1690,-82.9260,3.0,4.226,233.941,5.427,'1111122,1111122,1111122' 
COMPS,ioos:station:USF.COMPS:C10:1,2014-07-04T17:05:00Z,27.1690,-82.9260,3.0,5.278,221.04,6.32,'1111122,1111122,1111122' 
COMPS,ioos:station:USF.COMPS:C10:1,2014-07-04T17:35:00Z,27.1690,-82.9260,3.0,8.48,277.816,10.09,'1111122,1111122,1111122' 
COMPS,ioos:station:USF.COMPS:C10:1,2014-07-04T18:05:00Z,27.1690,-82.9260,3.0,7.005,291.571,8.327,'1111122,1111122,1111122' 
COMPS,ioos:station:USF.COMPS:C10:1,2014-07-04T18:35:00Z,27.1690,-82.9260,3.0,4.14,297.46,5.767,'1111122,1111122,1111122' 
COMPS,ioos:station:USF.COMPS:C10:1,2014-07-04T19:05:00Z,27.1690,-82.9260,3.0,3.834,260.516,4.913,'1111122,1111122,1111122' 
COMPS,ioos:station:USF.COMPS:C10:1,2014-07-04T19:35:00Z,27.1690,-82.9260,3.0,5.347,238.52,6.503,'1111122,1111122,1111122' 
COMPS,ioos:station:USF.COMPS:C10:1,2014-07-04T20:05:00Z,27.1690,-82.9260,3.0,4.606,232.072,5.563,'1111122,1111122,1111122' 
COMPS,ioos:station:USF.COMPS:C10:1,2014-07-04T20:35:00Z,27.1690,-82.9260,3.0,3.83,241.758,4.917,'1111122,1111122,1111122' 
COMPS,ioos:station:USF.COMPS:C10:1,2014-07-04T21:05:00Z,27.1690,-82.9260,3.0,4.086,264.27,4.997,'1111122,1111122,1111122' 
COMPS,ioos:station:USF.COMPS:C10:1,2014-07-04T21:35:00Z,27.1690,-82.9260,3.0,3.73,277.625,5.123,'1111122,1111122,1111122' 
COMPS,ioos:station:USF.COMPS:C10:1,2014-07-04T22:05:00Z,27.1690,-82.9260,3.0,3.072,276.432,4.423,'1111122,1111122,1111122' 
COMPS,ioos:station:USF.COMPS:C10:1,2014-07-04T22:35:00Z,27.1690,-82.9260,3.0,3.098,288.402,3.84,'1111122,1111122,1111122' 
COMPS,ioos:station:USF.COMPS:C10:1,2014-07-04T23:05:00Z,27.1690,-82.9260,3.0,2.821,294.988,3.65,'1111122,1111122,1111122' 
COMPS,ioos:station:USF.COMPS:C10:1,2014-07-04T23:35:00Z,27.1690,-82.9260,3.0,2.244,289.044,3.02,'1111122,1111122,1111122' 
COMPS,ioos:station:USF.COMPS:C10:1,2014-07-05T00:05:00Z,27.1690,-82.9260,3.0,1.417,303.989,2.507,'1111122,1111122,1111122' 
COMPS,ioos:station:USF.COMPS:C10:1,2014-07-05T00:35:00Z,27.1690,-82.9260,3.0,1.236,323.079,2.063,'1111122,1111122,1111122' 
COMPS,ioos:station:USF.COMPS:C10:1,2014-07-05T01:05:00Z,27.1690,-82.9260,3.0,1.713,289.019,2.577,'1111122,1111122,1111122' 
COMPS,ioos:station:USF.COMPS:C10:1,2014-07-05T01:35:00Z,27.1690,-82.9260,3.0,1.942,350.685,2.863,'1111122,1111122,1111122' 
COMPS,ioos:station:USF.COMPS:C10:1,2014-07-05T02:05:00Z,27.1690,-82.9260,3.0,1.249,51.567,1.82,'1111122,1111122,1111122' 
COMPS,ioos:station:USF.COMPS:C10:1,2014-07-05T02:35:00Z,27.1690,-82.9260,3.0,0.805,144.561,1.843,'1111122,1111122,1111122' 
COMPS,ioos:station:USF.COMPS:C10:1,2014-07-05T03:05:00Z,27.1690,-82.9260,3.0,3.238,211.869,5.103,'1111122,1111122,1111122' 
COMPS,ioos:station:USF.COMPS:C10:1,2014-07-05T03:35:00Z,27.1690,-82.9260,3.0,3.113,226.263,4.21,'1111122,1111122,1111122' 
COMPS,ioos:station:USF.COMPS:C10:1,2014-07-05T04:05:00Z,27.1690,-82.9260,3.0,2.569,238.782,3.163,'1111122,1111122,1111122' 
COMPS,ioos:station:USF.COMPS:C10:1,2014-07-05T04:35:00Z,27.1690,-82.9260,3.0,2.542,247.888,3.663,'1111122,1111122,1111122' 
COMPS,ioos:station:USF.COMPS:C10:1,2014-07-05T05:05:00Z,27.1690,-82.9260,3.0,2.799,285.018,3.73,'1111122,1111122,1111122' 
COMPS,ioos:station:USF.COMPS:C10:1,2014-07-05T05:35:00Z,27.1690,-82.9260,3.0,2.187,277.293,3.307,'1111122,1111122,1111122' 
COMPS,ioos:station:USF.COMPS:C10:1,2014-07-05T06:05:00Z,27.1690,-82.9260,3.0,2.298,259.626,3.28,'1111122,1111122,1111122' 
COMPS,ioos:station:USF.COMPS:C10:1,2014-07-05T06:35:00Z,27.1690,-82.9260,3.0,1.916,229.217,2.797,'1111122,1111122,1111122' 
COMPS,ioos:station:USF.COMPS:C10:1,2014-07-05T07:05:00Z,27.1690,-82.9260,3.0,1.451,248.406,2.327,'1111122,1111122,1111122' 